Cloud_Cover
36 19 4 2 12 0 2 0 10 99 100 85 80 100 99 100 100 100 100 100 100 100 100 100 100 100 100 100 100 100 100 100 100 100 100 100 100 100 100 100 100 100 100 100 100
100 99 15 0 0 0 0 0 0 0 16 100 100 62 100 98 100 100 100 100 100 55 91 100 100 98 74 100 100 100 100 100 100 100 100 100 100 100 100 100 100 100 100 100 100
100 85 30 0 0 0 0 0 0 0 0 83 100 100 94 100 100 96 100 100 100 97 98 100 100 100 80 100 71 100 100 100 100 100 100 100 100 100 100 100 100 100 100 100 100
100 100 25 2 0 0 3 0 0 0 0 0 0 85 100 100 98 100 100 100 100 100 98 100 100 100 68 98 100 58 62 98 100 100 100 100 100 100 100 100 100 100 100 100 100
100 58 2 0 0 0 0 0 0 1 20 85 52 52 3 12 0 94 100 100 100 100 100 100 100 100 79 100 100 14 81 5 83 100 100 100 100 100 100 100 100 100 100 100 100
0 0 0 0 2 5 0 25 9 54 97 99 100 100 31 18 12 53 99 100 91 100 100 100 100 98 89 87 69 22 13 5 5 100 100 100 100 100 100 100 100 100 100 100 100
0 0 0 0 0 0 0 0 16 99 100 100 100 100 88 0 0 25 6 100 100 99 74 100 100 100 90 15 46 39 5 5 4 97 100 100 100 100 100 100 100 100 68 7 5
98 5 8 6 2 0 0 0 0 55 76 75 51 31 23 0 0 0 0 85 100 100 43 6 28 17 65 78 56 38 5 0 57 86 94 100 100 100 100 100 100 60 94 5 2
84 0 0 0 60 78 5 4 0 0 0 6 19 35 20 0 0 0 0 0 0 0 77 100 35 5 5 9 6 5 0 0 88 100 98 99 12 100 100 100 82 5 3 5 26
0 0 2 1 23 74 19 0 0 0 0 0 0 20 0 0 0 0 0 0 0 0 0 4 0 0 0 0 7 83 13 5 2 94 100 100 0 20 94 40 0 2 3 5 3
1 0 0 0 0 2 26 0 0 0 0 0 0 0 0 0 0 0 0 0 0 0 0 0 0 0 0 0 0 0 0 0 4 50 100 12 0 0 1 0 0 2 4 0 0
0 0 0 0 0 0 0 0 0 2 0 0 0 0 0 3 2 0 0 3 0 0 0 2 0 0 0 0 0 0 0 0 0 7 14 70 0 0 0 4 0 0 3 5 2
0 0 0 0 0 0 0 0 0 0 0 0 0 0 0 0 1 0 0 5 1 0 0 0 2 5 0 0 0 0 0 0 0 0 0 10 0 0 3 4 5 10 28 26 100
0 4 7 23 0 0 0 0 0 0 3 0 0 0 0 24 16 32 40 50 86 4 4 0 0 1 38 3 0 0 0 0 0 0 0 0 0 0 52 17 3 6 100 100 100
5 18 17 37 13 0 0 0 0 0 0 0 0 0 0 8 67 83 100 42 0 3 32 0 0 0 5 5 12 0 0 0 0 0 0 0 0 0 0 0 0 89 33 2 5
14 68 89 0 14 2 0 0 0 0 0 0 0 2 0 30 100 76 78 100 55 100 16 0 0 0 5 88 73 6 0 0 0 0 0 0 0 0 0 0 0 0 0 0 0
17 2 64 0 0 0 0 0 0 4 0 4 0 17 3 0 100 100 100 100 99 100 82 94 45 0 0 5 94 69 24 0 0 0 0 0 0 0 0 0 0 0 0 0 0
22 14 0 0 0 0 5 0 3 2 5 5 5 36 6 1 20 100 88 100 100 100 100 100 44 1 5 0 30 100 52 5 0 0 0 0 0 0 0 0 0 0 0 0 0
0 0 0 0 0 3 5 5 5 5 5 44 5 5 67 55 4 44 100 99 100 100 100 100 100 100 97 100 22 7 96 84 5 0 0 0 0 0 0 0 0 0 0 0 0
32 16 0 0 0 5 5 5 5 5 75 53 86 5 5 83 74 5 9 85 100 100 100 91 100 100 100 99 100 9 5 85 15 3 0 0 0 0 3 0 0 0 0 0 0
0 0 0 0 4 5 5 7 5 72 97 60 94 47 5 38 16 69 100 54 32 100 100 82 100 100 100 65 11 59 3 59 31 19 0 0 0 0 3 0 0 0 0 0 0
5 0 0 0 4 35 5 5 5 9 46 71 78 9 8 5 5 8 100 100 100 96 100 96 65 100 100 40 5 81 37 99 30 5 0 0 0 0 48 0 0 0 0 0 0
100 69 0 2 0 5 10 30 28 32 7 63 32 50 5 21 59 5 79 92 100 100 56 57 46 32 100 97 5 1 5 7 7 5 0 0 0 0 90 0 0 0 0 0 0
68 15 0 0 0 5 52 72 84 23 31 68 57 82 75 31 63 48 6 6 30 91 85 18 79 10 32 26 68 27 23 11 4 12 0 0 0 84 100 0 0 5 0 0 0
10 3 22 4 5 5 69 100 22 100 91 91 43 100 97 100 100 100 94 95 90 100 100 99 88 33 100 47 55 78 12 9 90 5 2 0 1 100 100 2 35 5 0 0 0
5 10 5 5 7 100 79 64 100 87 100 32 96 99 88 77 100 100 94 100 94 61 99 83 62 91 100 100 100 90 18 13 5 5 5 3 57 100 92 95 14 3 0 0 2
5 7 66 10 5 46 45 78 100 100 29 88 99 100 18 93 100 100 75 76 88 100 100 91 87 70 74 80 100 30 4 5 0 0 5 3 100 100 89 41 5 5 3 8 8